Simultaneous Nadir Overpasses (SNOs) Predictions

Prediction of SNOs between AURA and NPP Satellite Orbit:

Table of predicted SNOs for the next 14.0 days since TLE Epoch: 7/7/2017
Index Date (AURA) Time (AURA) Lat,Lon (AURA) SZA (AURA ) Date (NPP) Time (NPP) Lat,Lon (NPP) SZA (NPP ) Distance(km) Time Diff (sec)
1 07/09/2017 02:53:51 -73.81,-167.87 102.33 07/09/2017 02:52:38 -74.05,-169.54 102.07 58.15 73
2 07/09/2017 03:41:17 79.37, 20.52 70.88 07/09/2017 03:41:18 79.37, 20.53 70.87 0.33 1
3 07/11/2017 19:08:24 -79.21, -32.29 108.54 07/11/2017 19:07:33 -79.21, -32.24 108.52 1.08 51
4 07/11/2017 19:57:43 79.46, 137.03 71.09 07/11/2017 19:58:10 79.46, 136.98 71.08 1.09 27
5 07/14/2017 11:24:50 -79.30, 84.20 108.28 07/14/2017 11:24:25 -79.30, 84.21 108.27 0.33 25
6 07/14/2017 12:14:10 79.52,-106.74 71.42 07/14/2017 12:15:03 79.51,-106.83 71.39 1.97 53
7 07/17/2017 02:53:47 73.86, 12.27 78.80 07/17/2017 02:52:34 74.12, 10.65 79.04 57.09 73
8 07/17/2017 03:41:17 -79.36,-159.59 107.92 07/17/2017 03:41:18 -79.36,-159.60 107.92 0.28 1
9 07/19/2017 19:08:22 79.14, 147.29 72.87 07/19/2017 19:07:32 79.14, 147.21 72.92 1.75 50




NCC Satellite Simultaneous Nadir Overpasses (SNOs) Prediction Service
